Regional Weather Roundup
Issued by NWS Goodland, KS

Home | Current Version | Previous Version | Text Only | Print | Product List | Glossary On
Versions: 1 2 3 4 5 6 7 8 9 10 11 12 13 14 15 16 17 18 19 20 21 22 23 24 25 26 27 28 29 30 31 32 33 34 35 36 37 38 39 40 41 42 43 44 45 46 47 48 49 50
805
ASUS43 KGLD 282108
RWRGLD

GOODLAND FORECAST AREA HOURLY WEATHER ROUNDUP
NATIONAL WEATHER SERVICE GOODLAND KS
300 PM MDT SUN AUG 28 2016

...OFFICIAL OBSERVATIONS...

CITY           SKY/WX    TMP DP  RH WIND       PRES   REMARKS
GOODLAND KS    MOSUNNY   83  56  39 S15       30.10F
HILL CITY KS   SUNNY     85  63  47 S7        30.06F
IMPERIAL NEB   SUNNY     86  52  30 S18G24    30.07F
MCCOOK NEB     CLOUDY    81  61  50 S8        30.08F
AKRON CO       MOSUNNY   84  44  24 S10       30.12F
BURLINGTON CO  SUNNY     84  53  34 E16G23    30.12F
LIMON CO       MOSUNNY   84  42  22 SE13G21   30.15F
$$

...UNOFFICIAL OBSERVATIONS...

CITY           SKY/WX    TMP DP  RH WIND       PRES   REMARKS
COLBY KS       SUNNY     84  61  45 E9        30.10F
LENORA KS        N/A     82  32  16 MISG        N/A
NORTON KS      SUNNY     81  55  41 SE10      30.07
SHARON SPRINGS   N/A     84  63  49 SE9G16      N/A
TRENTON NEB      N/A     84  32  15 MISG        N/A
KIT CARSON CO    N/A     85  53  32 MISG        N/A
YUMA CO          N/A     86  55  34 SE13G20     N/A
$$




USA.gov is the U.S. government's official web portal to all federal, state and local government web resources and services.